Location: Unspecified
(54.1780°N, 0.0000°E)
Time: 08:18:35
(UTC+00:00)

Transit 2A - Pass Details

Date: 18 June 2019
Orbit: 594 x 965 km, 66.7° (Epoch: 16 July)

Event Time Altitude Azimuth Distance (km) Brightness Sun altitude
Rises 07:56:15 0° 314° (NW) 3,583 9.1 35.5°
Reaches altitude 10° 07:59:02 10° 321° (NW) 2,595 8.5 35.9°
Maximum altitude 08:04:44 42° 32° (NNE) 1,206 7.7 36.7°
Drops below altitude 10° 08:09:54 10° 102° (ESE) 2,359 9.9 37.5°
Sets 08:12:20 0° 110° (ESE) 3,224 10.2 37.8°
